SCP
0 0 0 0 0 0 0 0 0 0 0 0 0 0 0 0 0 0 0 0 -0 -0 -0 0 0 -0 -0 0 0 0 0 0 0 0 -0 -0 -0 -0 -0 -0 -0 -0 -0 -0 -0 -0 -0 -0 0
0 0 0 0 0 0 0 0 0 0 0 0 0 0 0 0 0 0 0 0 -0 -0 0 0 0 0 0 0 0 0 0 0 0 0 -0 -0 -0 -0 -0 -0 -0 -0 -0 -0 -0 -0 -0 0 -0
0 0 0 0 0 0 0 0 0 0 0 0 0 0 0 0 0 0 0 -0 -0 0 0 0 0 0 0 0 0 0 0 0 0 0 -0 -0 -0 -0 -0 -0 -0 -0 -0 -0 -0 -0 -0 -0 -0
0 0 0 0 0 0 0 0 0 0 0 0 0 0 0 0 0 0 0 -0 -0 0 0 0 0 0 0 0 0 0 0 0 0 0 0 -0 -0 -0 -0 -0 -0 -0 -0 -0 0 0 -0 -0 -0
0 0 0 0 0 0 0 0 0 0 0 0 0 0 0 0 0 0 0 0 0 0 0 0 0 0 0 0 0 0 0 0 0 0 0 0 -0 -0 -0 -0 -0 -0 0 0 0 0 -0 -0 -0
0 0 0 0 0 0 0 0 0 0 0 0 0 0 0 0 0 0 0 0 0 0 0 0 0 0 0 0 0 0 0 0 0 0 0 0 0 0 -0 -0 -0 0 0 0 0 -0 -0 -0 -0
0 0 0 0 0 0 0 0 0 0 0 0 0 0 0 0 0 0 0 0 0 0 0 0 0 0 0 0 0 0 0 0 0 0 0 0 -0 0 0 0 0 0 0 -0 -0 -0 -0 -0 -0
0 0 0 0 0 0 0 0 0 0 0 0 0 0 0 0 0 0 0 0 0 0 0 0 0 0 0 0 0 0 0 0 0 0 0 0 0 0 0 0 0 0 0 -0 -0 -0 -0 -0 -0
0 0 0 0 0 0 0 0 0 0 0 0 0 0 0 0 0 0 0 0 0 0 0 0 0 0 0 0 0 0 0 0 0 0 0 0 0 0 0 0 0 0 -0 -0 -0 -0 -0 -0 -0
0 0 0 0 0 0 0 0 0 0 0 0 0 0 0 0 0 0 0 0 0 0 0 0 0 0 0 0 0 0 0 0 0 0 0 0 0 0 0 0 0 -0 -0 -0 -0 -0 -0 -0 -0
0 0 0 0 0 0 0 0 0 0 0 0 0 0 0 0 0 0 0 0 0 0 0 0 0 0 0 0 0 0 0 0 0 0 0 0 0 0 0 0 0 0 0 0 0 0 0 0 0
0 0 0 0 0 0 0 0 0 0 0 0 0 0 0 0 0 0 0 0 0 0 0 0 0 0 0 0 0 0 0 0 0 0 0 0 0 0 0 0 0 0 0 0 0 0 0 0 0
0 0 0 0 0 0 0 0 0 0 0 0 0 0 0 0 0 0 0 0 0 0 0 0 0 0 0 0 0 0 0 0 0 0 0 0 0 0 0 0 0 0 0 0 0 0 0 0 0
0 0 0 0 0 0 0 0 0 0 0 0 -0 0 0 0 0 0 0 0 0 0 0 0 0 0 0 0 0 0 0 0 0 0 0 0 0 0 0 0 0 0 0 0 0 0 0 0 0
0 0 0 0 0 0 0 0 0 -0 0 0 -0 0 0 0 0 0 0 0 0 0 0 0 0 0 0 0 0 0 0 0 0 0 0 0 0 0 0 0 0 0 0 0 0 0 0 0 0
0 0 0 0 0 0 0 0 0 0 -0 0 -0 0 0 0 0 0 0 0 0 0 0 0 0 0 0 0 0 0 0 0 0 0 0 0 0 0 0 0 0 0 0 0 0 0 0 0 0
0 0 0 0 0 0 0 0 0 0 0 0 0 0 0 0 0 0 0 0 0 0 0 0 0 0 0 0 0 0 0 0 0 0 0 0 0 0 0 0 0 0 0 0 0 0 0 0 0
0 0 0 0 -0 0 0 0 0 0 0 0 0 0 0 0 0 0 0 0 0 0 0 0 0 0 0 0 0 0 0 0 0 0 0 0 0 0 0 0 0 0 0 0 0 0 0 0 0
0 0 0 0 0 0 0 0 -0 0 0 0 0 0 0 0 0 0 0 0 0 0 0 0 0 0 0 0 0 0 0 0 0 0 0 0 0 0 0 0 0 0 0 0 0 0 0 0 0
0 0 0 0 -0 0 -0 -0 0 0 0 0 0 0 0 0 0 0 0 0 0 0 0 0 0 0 0 0 0 0 0 0 0 0 0 0 0 0 0 0 0 0 0 0 0 0 0 0 0
0 0 0 0 -0 0 -0 0 0 0 0 0 0 0 0 0 0 0 0 0 0 0 0 0 0 0 0 0 0 0 0 0 0 0 0 0 0 0 0 0 0 0 0 0 0 0 0 0 0
0 0 0 0 -0 0 0 0 0 0 0 0 0 0 0 0 0 0 0 0 0 0 0 0 0 0 0 0 0 0 0 0 0 0 0 0 0 0 0 0 0 0 0 0 0 0 0 0 0
0 -0 0 -0 0 -0 0 0 0 0 0 0 0 0 0 0 0 0 0 0 0 0 0 0 0 0 0 0 0 0 0 0 0 0 0 0 0 0 0 0 0 0 0 0 0 0 0 0 0
0 0 0 0 0 0 0 -0 0 0 0 0 0 0 0 0 0 0 0 0 0 0 0 0 0 0 0 0 0 0 0 0 0 0 0 0 0 0 0 0 0 0 0 0 0 0 0 0 0
-0 -0 0 -0 -0 -0 0 0 0 0 0 0 0 0 0 0 0 0 0 0 0 -0 0 0 0 0 0 0 0 0 0 0 0 0 0 0 0 0 0 0 0 0 0 0 0 0 0 0 0
-0 0 0 0 -0 0 -0 0 0 0 0 0 0 0 0 0 0 0 0 0 0 0 -0 0 0 0 0 0 0 -0 0 0 0 0 0 0 0 0 0 0 0 0 0 0 0 0 0 0 0
-0 0 -0 -0 0 -0 -0 0 0 0 0 0 0 0 0 0 0 0 0 0 0 0 -0 -0 -0 0 0 -0 -0 -0 0 0 0 0 0 0 0 0 0 0 0 0 0 0 0 0 0 0 0
0 0 -0 0 0 0 0 0 0 0 0 0 0 0 0 0 0 0 0 0 0 0 -0 -0 -0 -0 -0 0 0 0 0 0 0 0 0 0 0 0 0 0 0 0 0 0 0 0 0 0 0
0 0 0 0 0 0 0 0 0 0 0 0 0 -0 -0 -0 -0 -0 -0 -0 -0 -0 -0 -0 -0 0 0 0 0 0 0 0 0 0 0 0 0 0 0 0 0 0 0 0 0 0 0 0 0
0 0 0 0 0 0 0 0 0 0 0 0 -0 -0 -0 -0 -0 -0 0 0 0 0 0 0 0 0 0 0 0 0 0 0 0 0 0 0 0 0 0 0 0 0 0 0 0 0 0 0 0
Wind_Speed_500mb
12 7 5 4 2 5 5 10 4 6 6 4 11 9 14 11 12 6 13 44 63 69 64 60 50 42 34 41 45 40 34 30 26 22 18 14 12 9 8 13 14 20 23 23 21 19 18 16 14
13 8 7 4 6 5 10 9 16 19 9 6 8 6 7 9 13 6 29 49 67 69 67 61 53 46 39 43 42 39 33 28 25 20 20 17 13 11 13 16 15 17 19 19 18 16 15 13 11
15 9 6 5 7 25 11 12 19 6 12 16 5 9 5 5 16 11 27 49 73 71 67 61 55 48 43 46 40 37 32 26 22 21 18 16 15 16 18 18 18 18 18 16 15 13 11 9 7
11 8 3 5 28 13 20 10 14 9 1 8 6 7 8 10 8 24 32 49 73 72 67 61 56 51 44 47 42 36 31 25 22 19 17 17 18 20 17 16 17 18 17 15 12 10 8 6 5
15 6 5 9 20 18 11 14 18 4 6 9 2 6 7 13 14 31 37 52 70 72 68 61 57 51 45 45 43 36 30 23 19 17 19 19 19 18 17 15 14 14 13 11 9 7 5 4 4
11 5 5 30 39 11 4 18 16 9 15 12 7 9 14 18 21 28 40 53 64 65 66 61 57 51 47 48 43 40 31 23 18 19 19 19 20 20 18 16 14 12 11 9 6 4 2 2 4
9 5 27 17 32 8 7 19 20 32 21 22 18 8 11 25 29 30 42 55 60 61 64 61 56 52 49 49 46 40 32 24 20 20 19 18 21 20 20 17 14 10 9 7 5 2 1 1 3
6 4 10 28 28 17 7 17 14 34 36 34 18 12 11 37 39 38 44 57 56 59 60 58 55 54 54 52 47 41 32 25 23 21 19 18 22 19 19 17 14 11 9 7 5 4 2 0 2
2 5 31 20 5 7 29 6 14 19 32 22 24 21 16 32 47 48 52 61 61 63 63 62 59 57 56 53 47 41 33 27 25 23 20 19 19 16 16 16 14 11 9 7 5 4 3 3 1
9 7 13 8 7 4 18 24 34 16 15 15 25 32 25 32 55 60 66 72 72 71 68 65 64 60 57 55 50 42 36 32 29 26 23 20 19 18 16 15 13 12 9 7 7 6 6 5 4
6 15 21 41 31 25 18 23 34 23 12 22 31 47 40 45 60 61 66 70 77 70 66 65 61 60 58 55 50 45 39 33 29 27 25 24 23 21 18 15 14 13 11 10 9 7 7 7 6
9 10 11 18 25 23 8 24 32 22 43 45 32 27 42 54 66 67 70 73 73 69 67 67 66 61 59 55 50 45 40 35 30 26 26 25 23 21 18 17 16 14 13 10 11 10 10 9 9
12 14 23 27 40 40 31 27 17 45 45 48 42 36 35 56 66 68 70 70 68 66 66 64 63 63 61 56 51 45 40 33 27 25 23 24 22 20 19 17 15 14 14 13 14 13 13 13 13
11 25 35 45 42 32 27 25 18 45 57 45 40 40 44 54 70 71 71 71 66 63 62 61 61 60 58 55 52 45 37 30 28 25 21 19 20 20 19 18 16 14 15 16 16 16 16 16 16
20 22 22 24 29 21 24 25 21 19 42 50 30 35 48 58 70 73 72 71 66 65 58 55 55 59 55 52 47 43 38 32 29 26 26 23 22 20 19 18 17 15 18 19 20 19 20 19 21
10 13 13 1 17 14 22 28 21 6 28 46 25 33 41 46 58 68 68 66 61 59 59 51 54 56 54 54 48 44 39 35 31 30 29 28 24 21 21 21 19 19 23 24 25 25 25 24 24
6 14 16 21 21 11 24 14 12 25 31 19 27 18 11 19 38 51 55 52 53 53 49 40 44 49 51 49 45 43 39 38 35 33 30 26 26 24 24 23 21 23 26 27 28 27 27 26 25
9 12 13 22 8 24 26 3 22 41 34 28 37 28 18 18 14 37 41 44 45 43 35 31 32 32 33 43 46 43 40 38 35 33 31 29 27 27 28 27 26 27 29 28 28 28 27 27 24
25 22 32 14 12 8 17 12 13 40 23 50 56 48 42 27 11 13 28 34 37 37 38 37 34 29 28 36 44 43 42 37 38 38 34 33 30 30 30 29 29 29 30 26 26 28 28 28 27
12 21 20 22 12 16 18 22 26 17 17 48 61 50 48 26 24 15 15 18 28 30 33 36 37 34 31 32 33 37 34 34 35 37 40 36 36 34 31 32 29 29 29 29 30 31 33 33 33
10 13 14 9 18 10 22 8 10 9 27 53 70 53 54 38 33 24 15 23 28 32 32 33 35 38 35 36 35 37 38 38 36 31 31 32 30 27 35 33 34 32 33 34 32 36 35 34 33
11 21 15 18 3 7 9 8 2 7 25 37 48 64 55 62 36 31 30 24 20 16 22 36 33 35 38 37 36 38 39 39 35 30 27 26 30 32 31 30 27 26 30 31 30 28 27 23 23
11 12 7 11 8 5 12 8 8 13 20 24 29 43 34 43 47 59 42 31 39 31 20 18 15 21 21 26 29 33 32 30 32 34 33 33 36 44 39 33 30 31 31 32 29 27 28 31 32
20 6 5 3 5 6 12 1 5 9 10 8 19 46 65 55 45 51 54 34 43 37 31 26 30 17 15 18 8 2 4 5 11 14 18 19 22 22 26 30 33 35 30 30 32 34 36 33 34
16 9 6 9 9 6 20 15 8 18 12 11 16 22 35 46 55 49 39 35 33 36 43 34 24 14 14 7 3 10 10 14 21 29 29 37 45 44 42 36 44 39 37 35 35 36 35 32 32
9 7 5 2 4 4 14 12 10 9 14 14 5 9 14 21 24 30 26 26 32 32 42 44 31 30 22 18 19 16 16 27 28 30 33 39 30 27 25 24 28 29 27 22 19 19 19 19 17
14 9 4 9 3 7 5 2 3 4 7 12 20 18 5 5 6 13 12 18 27 19 15 17 18 15 14 11 9 15 21 24 27 28 24 22 21 20 18 17 16 14 10 8 7 8 8 9 7
5 5 6 6 6 6 4 7 4 9 10 12 21 27 32 35 36 34 32 28 20 18 18 16 14 13 12 11 5 3 2 8 13 15 15 14 13 11 11 10 8 5 3 1 2 2 1 6 9
11 7 7 5 4 5 6 1 3 5 6 11 19 32 34 39 42 43 44 39 34 26 23 22 19 18 16 13 9 7 6 4 4 4 5 7 9 11 11 10 8 7 5 3 2 2 6 9 11
2 3 1 6 4 4 4 5 5 7 13 23 26 32 39 43 46 49 48 47 44 40 38 34 28 23 21 16 13 12 11 6 2 2 3 3 3 5 7 8 9 7 6 4 1 3 6 10 10
Wind_Direction_500mb
264 261 205 198 59 60 242 244 280 251 241 224 140 164 202 162 166 210 175 172 176 174 173 174 173 170 171 166 162 165 163 164 167 173 186 200 214 222 186 166 142 115 110 111 108 106 101 93 83
254 238 191 158 136 206 239 207 226 230 218 333 218 201 178 228 196 209 164 169 177 178 175 176 174 172 172 168 168 172 172 175 183 197 210 216 215 196 169 166 137 119 115 112 111 109 103 94 82
238 220 180 169 185 221 230 208 223 219 250 240 238 235 212 236 203 190 175 174 175 181 180 177 174 174 172 172 173 175 182 189 194 204 211 207 188 177 168 151 143 132 128 123 117 112 103 92 76
207 182 170 209 226 245 217 196 199 140 103 175 238 270 259 219 196 176 177 178 176 183 182 179 176 176 177 178 179 184 185 191 194 199 199 187 177 170 158 150 144 140 129 126 123 116 109 93 67
188 162 221 235 242 240 234 202 165 192 187 168 193 277 258 233 209 180 183 181 180 183 184 182 180 180 179 177 178 181 183 188 196 189 185 181 178 162 157 155 146 134 134 130 121 111 94 77 62
177 152 216 239 236 245 348 254 250 239 255 238 245 216 252 235 200 186 185 183 183 184 184 184 184 183 181 177 179 180 187 193 197 188 186 187 181 172 165 161 154 150 151 142 137 127 97 63 34
145 136 233 254 259 282 251 262 214 245 259 252 231 185 241 208 192 192 185 182 183 188 186 186 185 185 184 180 183 187 194 196 198 194 187 194 191 177 171 169 169 169 164 159 159 157 146 40 12
176 149 255 236 251 281 244 242 261 223 247 251 222 205 233 203 192 181 180 182 184 189 191 190 188 186 184 187 188 194 199 198 198 196 195 194 187 185 172 175 182 188 182 178 181 190 199 266 330
167 254 248 250 210 272 279 314 255 281 236 222 209 220 212 197 185 177 180 183 187 192 195 193 191 188 187 188 192 196 200 198 198 200 200 205 192 186 182 193 199 205 204 199 204 222 247 266 277
201 251 268 2 344 353 316 307 315 264 260 226 215 218 218 194 187 186 187 188 192 194 194 195 193 190 188 191 196 198 199 200 199 201 205 205 210 212 209 209 211 211 213 224 243 251 260 260 278
251 246 259 277 291 303 321 315 328 291 264 249 230 220 207 191 193 196 197 197 197 194 194 194 193 192 193 195 198 200 201 203 204 205 207 206 209 215 217 212 209 209 223 248 250 253 265 266 272
299 308 318 302 308 304 286 315 319 295 273 278 290 268 219 198 199 203 203 201 199 197 197 196 196 195 200 203 204 204 205 208 208 210 210 213 215 216 220 222 226 228 248 256 250 253 260 261 265
253 292 300 305 285 267 274 267 256 299 306 283 286 267 243 216 209 205 205 205 200 199 197 199 194 198 202 208 209 209 213 214 215 216 216 213 214 217 224 222 235 239 249 257 255 254 260 267 273
237 277 274 281 285 289 258 251 238 257 306 294 269 269 249 227 214 207 208 207 203 204 198 201 201 203 206 208 212 213 215 219 222 223 223 222 222 223 227 228 237 244 255 261 262 265 268 270 274
280 287 293 251 230 234 260 267 232 249 297 297 275 254 241 223 216 215 210 208 204 204 206 204 207 207 209 215 216 218 221 226 231 231 233 234 232 227 232 238 246 255 264 268 270 270 272 274 275
267 267 283 233 207 237 176 259 219 2 340 298 291 258 241 218 221 216 211 210 205 206 209 213 212 213 214 217 218 221 226 234 238 236 237 237 230 230 238 245 252 259 264 269 271 274 277 279 282
228 272 258 294 202 200 184 249 171 26 358 9 3 315 271 228 228 219 215 211 209 211 212 217 215 216 219 223 220 226 233 238 241 235 231 233 233 238 247 253 258 262 267 270 272 273 277 278 282
280 259 257 252 288 204 200 159 63 36 355 57 39 26 57 26 244 217 216 216 216 221 222 226 217 218 223 224 221 226 232 234 229 228 233 238 241 247 255 258 263 267 270 271 276 280 281 283 288
268 279 269 226 245 249 219 169 63 19 303 43 44 17 43 59 47 184 206 212 216 219 223 223 220 220 221 220 221 228 232 233 235 237 240 244 250 255 258 262 268 266 269 275 279 281 285 289 292
281 282 308 258 210 204 152 132 87 35 344 50 53 27 30 32 60 87 169 201 210 220 225 224 224 226 226 228 232 237 242 249 253 255 252 253 256 258 263 263 264 265 269 270 274 274 279 278 278
317 308 334 299 89 73 121 52 122 193 31 49 49 40 32 29 36 62 136 182 195 205 213 224 224 230 235 236 236 239 244 252 258 258 255 254 259 252 260 259 261 262 266 269 268 270 271 277 280
330 344 343 12 99 70 354 134 248 74 53 37 33 38 26 28 28 55 72 101 149 176 205 207 214 226 235 233 236 242 249 257 264 261 258 250 246 248 254 265 269 270 271 272 272 274 276 271 281
262 333 344 45 51 108 14 89 334 16 34 31 21 57 41 43 30 36 30 46 82 84 108 119 166 197 207 221 239 248 250 256 269 270 261 256 255 252 253 259 271 279 282 274 276 275 282 286 280
285 288 251 7 71 73 341 282 33 31 29 12 42 33 48 39 40 38 27 18 39 50 42 55 49 66 99 133 131 121 204 244 285 287 285 263 274 276 280 282 288 280 273 271 274 277 278 272 280
14 21 349 4 47 19 339 53 31 18 39 30 49 54 45 48 51 49 33 38 47 53 43 37 36 12 15 265 277 257 242 262 270 278 282 280 270 271 271 266 271 278 277 275 274 273 269 271 275
321 40 104 108 46 15 2 25 14 317 331 349 75 59 27 6 8 30 63 42 50 63 76 44 28 25 2 328 325 302 294 294 283 293 275 270 279 276 274 273 273 271 274 274 275 273 270 269 264
319 38 284 112 350 70 7 144 46 234 3 57 63 57 54 303 309 358 356 36 59 57 54 91 81 56 44 326 283 261 263 269 259 255 258 265 269 268 260 258 256 258 262 271 275 269 259 260 264
44 298 12 10 68 69 51 60 73 22 35 47 55 59 71 77 72 63 58 59 59 51 55 57 72 93 102 104 103 99 256 236 245 247 236 233 236 239 235 234 230 227 234 265 316 298 285 216 233
346 8 32 113 64 135 117 331 220 146 113 97 74 80 80 77 75 71 69 67 64 67 67 67 58 57 63 58 42 40 52 19 303 269 257 234 215 208 198 197 183 185 179 187 195 248 265 263 265
242 354 33 103 280 46 89 221 128 164 125 108 97 93 87 80 77 73 68 64 61 56 53 49 46 42 45 48 50 45 37 16 6 1 329 308 272 246 210 194 186 179 169 170 181 287 285 284 288
Wind_Speed_850mb
12 7 5 4 2 5 5 10 4 6 6 4 11 9 14 11 12 6 13 44 63 69 64 60 50 42 34 41 45 40 34 30 26 22 18 14 12 9 8 13 14 20 23 23 21 19 18 16 14
13 8 7 4 6 5 10 9 16 19 9 6 8 6 7 9 13 6 29 49 67 69 67 61 53 46 39 43 42 39 33 28 25 20 20 17 13 11 13 16 15 17 19 19 18 16 15 13 11
15 9 6 5 7 25 11 12 19 6 12 16 5 9 5 5 16 11 27 49 73 71 67 61 55 48 43 46 40 37 32 26 22 21 18 16 15 16 18 18 18 18 18 16 15 13 11 9 7
11 8 3 5 28 13 20 10 14 9 1 8 6 7 8 10 8 24 32 49 73 72 67 61 56 51 44 47 42 36 31 25 22 19 17 17 18 20 17 16 17 18 17 15 12 10 8 6 5
15 6 5 9 20 18 11 14 18 4 6 9 2 6 7 13 14 31 37 52 70 72 68 61 57 51 45 45 43 36 30 23 19 17 19 19 19 18 17 15 14 14 13 11 9 7 5 4 4
11 5 5 30 39 11 4 18 16 9 15 12 7 9 14 18 21 28 40 53 64 65 66 61 57 51 47 48 43 40 31 23 18 19 19 19 20 20 18 16 14 12 11 9 6 4 2 2 4
9 5 27 17 32 8 7 19 20 32 21 22 18 8 11 25 29 30 42 55 60 61 64 61 56 52 49 49 46 40 32 24 20 20 19 18 21 20 20 17 14 10 9 7 5 2 1 1 3
6 4 10 28 28 17 7 17 14 34 36 34 18 12 11 37 39 38 44 57 56 59 60 58 55 54 54 52 47 41 32 25 23 21 19 18 22 19 19 17 14 11 9 7 5 4 2 0 2
2 5 31 20 5 7 29 6 14 19 32 22 24 21 16 32 47 48 52 61 61 63 63 62 59 57 56 53 47 41 33 27 25 23 20 19 19 16 16 16 14 11 9 7 5 4 3 3 1
9 7 13 8 7 4 18 24 34 16 15 15 25 32 25 32 55 60 66 72 72 71 68 65 64 60 57 55 50 42 36 32 29 26 23 20 19 18 16 15 13 12 9 7 7 6 6 5 4
6 15 21 41 31 25 18 23 34 23 12 22 31 47 40 45 60 61 66 70 77 70 66 65 61 60 58 55 50 45 39 33 29 27 25 24 23 21 18 15 14 13 11 10 9 7 7 7 6
9 10 11 18 25 23 8 24 32 22 43 45 32 27 42 54 66 67 70 73 73 69 67 67 66 61 59 55 50 45 40 35 30 26 26 25 23 21 18 17 16 14 13 10 11 10 10 9 9
12 14 23 27 40 40 31 27 17 45 45 48 42 36 35 56 66 68 70 70 68 66 66 64 63 63 61 56 51 45 40 33 27 25 23 24 22 20 19 17 15 14 14 13 14 13 13 13 13
11 25 35 45 42 32 27 25 18 45 57 45 40 40 44 54 70 71 71 71 66 63 62 61 61 60 58 55 52 45 37 30 28 25 21 19 20 20 19 18 16 14 15 16 16 16 16 16 16
20 22 22 24 29 21 24 25 21 19 42 50 30 35 48 58 70 73 72 71 66 65 58 55 55 59 55 52 47 43 38 32 29 26 26 23 22 20 19 18 17 15 18 19 20 19 20 19 21
10 13 13 1 17 14 22 28 21 6 28 46 25 33 41 46 58 68 68 66 61 59 59 51 54 56 54 54 48 44 39 35 31 30 29 28 24 21 21 21 19 19 23 24 25 25 25 24 24
6 14 16 21 21 11 24 14 12 25 31 19 27 18 11 19 38 51 55 52 53 53 49 40 44 49 51 49 45 43 39 38 35 33 30 26 26 24 24 23 21 23 26 27 28 27 27 26 25
9 12 13 22 8 24 26 3 22 41 34 28 37 28 18 18 14 37 41 44 45 43 35 31 32 32 33 43 46 43 40 38 35 33 31 29 27 27 28 27 26 27 29 28 28 28 27 27 24
25 22 32 14 12 8 17 12 13 40 23 50 56 48 42 27 11 13 28 34 37 37 38 37 34 29 28 36 44 43 42 37 38 38 34 33 30 30 30 29 29 29 30 26 26 28 28 28 27
12 21 20 22 12 16 18 22 26 17 17 48 61 50 48 26 24 15 15 18 28 30 33 36 37 34 31 32 33 37 34 34 35 37 40 36 36 34 31 32 29 29 29 29 30 31 33 33 33
10 13 14 9 18 10 22 8 10 9 27 53 70 53 54 38 33 24 15 23 28 32 32 33 35 38 35 36 35 37 38 38 36 31 31 32 30 27 35 33 34 32 33 34 32 36 35 34 33
11 21 15 18 3 7 9 8 2 7 25 37 48 64 55 62 36 31 30 24 20 16 22 36 33 35 38 37 36 38 39 39 35 30 27 26 30 32 31 30 27 26 30 31 30 28 27 23 23
11 12 7 11 8 5 12 8 8 13 20 24 29 43 34 43 47 59 42 31 39 31 20 18 15 21 21 26 29 33 32 30 32 34 33 33 36 44 39 33 30 31 31 32 29 27 28 31 32
20 6 5 3 5 6 12 1 5 9 10 8 19 46 65 55 45 51 54 34 43 37 31 26 30 17 15 18 8 2 4 5 11 14 18 19 22 22 26 30 33 35 30 30 32 34 36 33 34
16 9 6 9 9 6 20 15 8 18 12 11 16 22 35 46 55 49 39 35 33 36 43 34 24 14 14 7 3 10 10 14 21 29 29 37 45 44 42 36 44 39 37 35 35 36 35 32 32
9 7 5 2 4 4 14 12 10 9 14 14 5 9 14 21 24 30 26 26 32 32 42 44 31 30 22 18 19 16 16 27 28 30 33 39 30 27 25 24 28 29 27 22 19 19 19 19 17
14 9 4 9 3 7 5 2 3 4 7 12 20 18 5 5 6 13 12 18 27 19 15 17 18 15 14 11 9 15 21 24 27 28 24 22 21 20 18 17 16 14 10 8 7 8 8 9 7
5 5 6 6 6 6 4 7 4 9 10 12 21 27 32 35 36 34 32 28 20 18 18 16 14 13 12 11 5 3 2 8 13 15 15 14 13 11 11 10 8 5 3 1 2 2 1 6 9
11 7 7 5 4 5 6 1 3 5 6 11 19 32 34 39 42 43 44 39 34 26 23 22 19 18 16 13 9 7 6 4 4 4 5 7 9 11 11 10 8 7 5 3 2 2 6 9 11
2 3 1 6 4 4 4 5 5 7 13 23 26 32 39 43 46 49 48 47 44 40 38 34 28 23 21 16 13 12 11 6 2 2 3 3 3 5 7 8 9 7 6 4 1 3 6 10 10
Wind_Direction_850mb
264 261 205 198 59 60 242 244 280 251 241 224 140 164 202 162 166 210 175 172 176 174 173 174 173 170 171 166 162 165 163 164 167 173 186 200 214 222 186 166 142 115 110 111 108 106 101 93 83
254 238 191 158 136 206 239 207 226 230 218 333 218 201 178 228 196 209 164 169 177 178 175 176 174 172 172 168 168 172 172 175 183 197 210 216 215 196 169 166 137 119 115 112 111 109 103 94 82
238 220 180 169 185 221 230 208 223 219 250 240 238 235 212 236 203 190 175 174 175 181 180 177 174 174 172 172 173 175 182 189 194 204 211 207 188 177 168 151 143 132 128 123 117 112 103 92 76
207 182 170 209 226 245 217 196 199 140 103 175 238 270 259 219 196 176 177 178 176 183 182 179 176 176 177 178 179 184 185 191 194 199 199 187 177 170 158 150 144 140 129 126 123 116 109 93 67
188 162 221 235 242 240 234 202 165 192 187 168 193 277 258 233 209 180 183 181 180 183 184 182 180 180 179 177 178 181 183 188 196 189 185 181 178 162 157 155 146 134 134 130 121 111 94 77 62
177 152 216 239 236 245 348 254 250 239 255 238 245 216 252 235 200 186 185 183 183 184 184 184 184 183 181 177 179 180 187 193 197 188 186 187 181 172 165 161 154 150 151 142 137 127 97 63 34
145 136 233 254 259 282 251 262 214 245 259 252 231 185 241 208 192 192 185 182 183 188 186 186 185 185 184 180 183 187 194 196 198 194 187 194 191 177 171 169 169 169 164 159 159 157 146 40 12
176 149 255 236 251 281 244 242 261 223 247 251 222 205 233 203 192 181 180 182 184 189 191 190 188 186 184 187 188 194 199 198 198 196 195 194 187 185 172 175 182 188 182 178 181 190 199 266 330
167 254 248 250 210 272 279 314 255 281 236 222 209 220 212 197 185 177 180 183 187 192 195 193 191 188 187 188 192 196 200 198 198 200 200 205 192 186 182 193 199 205 204 199 204 222 247 266 277
201 251 268 2 344 353 316 307 315 264 260 226 215 218 218 194 187 186 187 188 192 194 194 195 193 190 188 191 196 198 199 200 199 201 205 205 210 212 209 209 211 211 213 224 243 251 260 260 278
251 246 259 277 291 303 321 315 328 291 264 249 230 220 207 191 193 196 197 197 197 194 194 194 193 192 193 195 198 200 201 203 204 205 207 206 209 215 217 212 209 209 223 248 250 253 265 266 272
299 308 318 302 308 304 286 315 319 295 273 278 290 268 219 198 199 203 203 201 199 197 197 196 196 195 200 203 204 204 205 208 208 210 210 213 215 216 220 222 226 228 248 256 250 253 260 261 265
253 292 300 305 285 267 274 267 256 299 306 283 286 267 243 216 209 205 205 205 200 199 197 199 194 198 202 208 209 209 213 214 215 216 216 213 214 217 224 222 235 239 249 257 255 254 260 267 273
237 277 274 281 285 289 258 251 238 257 306 294 269 269 249 227 214 207 208 207 203 204 198 201 201 203 206 208 212 213 215 219 222 223 223 222 222 223 227 228 237 244 255 261 262 265 268 270 274
280 287 293 251 230 234 260 267 232 249 297 297 275 254 241 223 216 215 210 208 204 204 206 204 207 207 209 215 216 218 221 226 231 231 233 234 232 227 232 238 246 255 264 268 270 270 272 274 275
267 267 283 233 207 237 176 259 219 2 340 298 291 258 241 218 221 216 211 210 205 206 209 213 212 213 214 217 218 221 226 234 238 236 237 237 230 230 238 245 252 259 264 269 271 274 277 279 282
228 272 258 294 202 200 184 249 171 26 358 9 3 315 271 228 228 219 215 211 209 211 212 217 215 216 219 223 220 226 233 238 241 235 231 233 233 238 247 253 258 262 267 270 272 273 277 278 282
280 259 257 252 288 204 200 159 63 36 355 57 39 26 57 26 244 217 216 216 216 221 222 226 217 218 223 224 221 226 232 234 229 228 233 238 241 247 255 258 263 267 270 271 276 280 281 283 288
268 279 269 226 245 249 219 169 63 19 303 43 44 17 43 59 47 184 206 212 216 219 223 223 220 220 221 220 221 228 232 233 235 237 240 244 250 255 258 262 268 266 269 275 279 281 285 289 292
281 282 308 258 210 204 152 132 87 35 344 50 53 27 30 32 60 87 169 201 210 220 225 224 224 226 226 228 232 237 242 249 253 255 252 253 256 258 263 263 264 265 269 270 274 274 279 278 278
317 308 334 299 89 73 121 52 122 193 31 49 49 40 32 29 36 62 136 182 195 205 213 224 224 230 235 236 236 239 244 252 258 258 255 254 259 252 260 259 261 262 266 269 268 270 271 277 280
330 344 343 12 99 70 354 134 248 74 53 37 33 38 26 28 28 55 72 101 149 176 205 207 214 226 235 233 236 242 249 257 264 261 258 250 246 248 254 265 269 270 271 272 272 274 276 271 281
262 333 344 45 51 108 14 89 334 16 34 31 21 57 41 43 30 36 30 46 82 84 108 119 166 197 207 221 239 248 250 256 269 270 261 256 255 252 253 259 271 279 282 274 276 275 282 286 280
285 288 251 7 71 73 341 282 33 31 29 12 42 33 48 39 40 38 27 18 39 50 42 55 49 66 99 133 131 121 204 244 285 287 285 263 274 276 280 282 288 280 273 271 274 277 278 272 280
14 21 349 4 47 19 339 53 31 18 39 30 49 54 45 48 51 49 33 38 47 53 43 37 36 12 15 265 277 257 242 262 270 278 282 280 270 271 271 266 271 278 277 275 274 273 269 271 275
321 40 104 108 46 15 2 25 14 317 331 349 75 59 27 6 8 30 63 42 50 63 76 44 28 25 2 328 325 302 294 294 283 293 275 270 279 276 274 273 273 271 274 274 275 273 270 269 264
319 38 284 112 350 70 7 144 46 234 3 57 63 57 54 303 309 358 356 36 59 57 54 91 81 56 44 326 283 261 263 269 259 255 258 265 269 268 260 258 256 258 262 271 275 269 259 260 264
44 298 12 10 68 69 51 60 73 22 35 47 55 59 71 77 72 63 58 59 59 51 55 57 72 93 102 104 103 99 256 236 245 247 236 233 236 239 235 234 230 227 234 265 316 298 285 216 233
346 8 32 113 64 135 117 331 220 146 113 97 74 80 80 77 75 71 69 67 64 67 67 67 58 57 63 58 42 40 52 19 303 269 257 234 215 208 198 197 183 185 179 187 195 248 265 263 265
242 354 33 103 280 46 89 221 128 164 125 108 97 93 87 80 77 73 68 64 61 56 53 49 46 42 45 48 50 45 37 16 6 1 329 308 272 246 210 194 186 179 169 170 181 287 285 284 288